| time (UTC) | temp C | wind direction | speed KPH | gust KPH | rain 1hr cm | rain 24hr cm | rain mn cm | humidity % | barometer mb |
| 20260506124541 | 6 | 0 | 0.0 | 0.0 | 0.00 | 0.00 | 0.00 | 91 | 1018.8 |
| 20260506124026 | 6 | 0 | 0.0 | 0.0 | 0.00 | 0.00 | 0.00 | 91 | 1018.9 |
| 20260506123525 | 6 | 0 | 0.0 | 0.0 | 0.00 | 0.00 | 0.00 | 91 | 1018.9 |
| 20260506123041 | 6 | 0 | 0.0 | 0.0 | 0.00 | 0.00 | 0.00 | 91 | 1018.9 |
| 20260506122526 | 6 | 0 | 0.0 | 0.0 | 0.00 | 0.00 | 0.00 | 91 | 1018.8 |
| 20260506122023 | 6 | 0 | 0.0 | 0.0 | 0.00 | 0.00 | 0.00 | 90 | 1018.8 |
| 20260506121540 | 6 | 0 | 0.0 | 0.0 | 0.00 | 0.00 | 0.00 | 90 | 1018.6 |
| 20260506121028 | 6 | 0 | 0.0 | 0.0 | 0.00 | 0.00 | 0.00 | 90 | 1018.6 |
| 20260506120527 | 6 | 0 | 0.0 | 0.0 | 0.00 | 0.00 | 0.00 | 90 | 1018.6 |
| 20260506120040 | 6 | 0 | 0.0 | 0.0 | 0.00 | 0.00 | 0.00 | 90 | 1018.6 |
| 20260506115524 | 6 | 0 | 0.0 | 0.0 | 0.00 | 0.00 | 0.00 | 90 | 1018.5 |
| 20260506115023 | 6 | 0 | 0.0 | 0.0 | 0.00 | 0.00 | 0.00 | 90 | 1018.5 |
| 20260506114540 | 6 | 0 | 0.0 | 0.0 | 0.00 | 0.00 | 0.00 | 90 | 1018.5 |
| 20260506114030 | 6 | 0 | 0.0 | 0.0 | 0.00 | 0.00 | 0.00 | 90 | 1018.5 |
| 20260506113527 | 6 | 0 | 0.0 | 0.0 | 0.00 | 0.00 | 0.00 | 90 | 1018.5 |
| 20260506113047 | 6 | 0 | 0.0 | 3.2 | 0.00 | 0.00 | 0.00 | 90 | 1018.5 |
| 20260506112524 | 6 | 0 | 0.0 | 3.2 | 0.00 | 0.00 | 0.00 | 90 | 1018.5 |
| 20260506112028 | 6 | 114 | 0.0 | 3.2 | 0.00 | 0.00 | 0.00 | 90 | 1018.6 |
| 20260506111539 | 6 | 0 | 0.0 | 1.6 | 0.00 | 0.00 | 0.00 | 90 | 1018.6 |
| 20260506111025 | 6 | 0 | 0.0 | 0.0 | 0.00 | 0.00 | 0.00 | 90 | 1018.5 |
| 20260506110526 | 6 | 0 | 0.0 | 1.6 | 0.00 | 0.00 | 0.00 | 90 | 1018.6 |
| 20260506110039 | 6 | 0 | 0.0 | 1.6 | 0.00 | 0.00 | 0.00 | 90 | 1018.6 |
| 20260506105525 | 6 | 0 | 0.0 | 1.6 | 0.00 | 0.00 | 0.00 | 90 | 1018.5 |
| 20260506105026 | 6 | 0 | 0.0 | 1.6 | 0.00 | 0.00 | 0.00 | 89 | 1018.5 |
| 20260506104545 | 7 | 0 | 0.0 | 1.6 | 0.00 | 0.00 | 0.00 | 90 | 1018.5 |
| 20260506104024 | 6 | 0 | 0.0 | 1.6 | 0.00 | 0.00 | 0.00 | 90 | 1018.5 |
| 20260506103524 | 6 | 0 | 0.0 | 0.0 | 0.00 | 0.00 | 0.00 | 90 | 1018.5 |
| 20260506103041 | 7 | 0 | 0.0 | 3.2 | 0.00 | 0.00 | 0.00 | 89 | 1018.5 |
| 20260506102523 | 7 | 0 | 0.0 | 3.2 | 0.00 | 0.00 | 0.00 | 89 | 1018.6 |
| 20260506102028 | 7 | 0 | 0.0 | 0.0 | 0.00 | 0.00 | 0.00 | 89 | 1018.6 |
| 20260506101548 | 7 | 0 | 0.0 | 0.0 | 0.00 | 0.00 | 0.00 | 89 | 1018.6 |
| 20260506101026 | 7 | 0 | 0.0 | 0.0 | 0.00 | 0.00 | 0.00 | 89 | 1018.6 |
| 20260506100526 | 7 | 0 | 0.0 | 0.0 | 0.00 | 0.00 | 0.00 | 89 | 1018.6 |
| 20260506100040 | 7 | 0 | 0.0 | 0.0 | 0.00 | 0.00 | 0.00 | 89 | 1018.5 |
| 20260506095526 | 7 | 0 | 0.0 | 0.0 | 0.00 | 0.00 | 0.00 | 89 | 1018.5 |
| 20260506095027 | 7 | 0 | 0.0 | 0.0 | 0.00 | 0.00 | 0.00 | 89 | 1018.6 |
| 20260506094540 | 7 | 0 | 0.0 | 0.0 | 0.00 | 0.00 | 0.00 | 89 | 1018.5 |
| 20260506094026 | 7 | 0 | 0.0 | 0.0 | 0.00 | 0.00 | 0.00 | 89 | 1018.5 |
| 20260506093526 | 7 | 0 | 0.0 | 0.0 | 0.00 | 0.00 | 0.00 | 89 | 1018.5 |
| 20260506093038 | 7 | 0 | 0.0 | 0.0 | 0.00 | 0.00 | 0.00 | 89 | 1018.5 |
| 20260506092528 | 7 | 0 | 0.0 | 3.2 | 0.00 | 0.00 | 0.00 | 89 | 1018.5 |
| 20260506092026 | 7 | 0 | 0.0 | 4.8 | 0.00 | 0.00 | 0.00 | 89 | 1018.4 |
| 20260506091538 | 7 | 0 | 0.0 | 4.8 | 0.00 | 0.00 | 0.00 | 89 | 1018.3 |
| 20260506091026 | 7 | 104 | 1.6 | 4.8 | 0.00 | 0.00 | 0.00 | 89 | 1018.4 |
| 20260506090529 | 7 | 0 | 0.0 | 4.8 | 0.00 | 0.00 | 0.00 | 89 | 1018.4 |
| 20260506090037 | 7 | 0 | 0.0 | 3.2 | 0.00 | 0.00 | 0.00 | 89 | 1018.3 |
| 20260506085526 | 7 | 91 | 0.0 | 0.0 | 0.00 | 0.00 | 0.00 | 89 | 1018.3 |
| 20260506085027 | 7 | 0 | 0.0 | 0.0 | 0.00 | 0.00 | 0.00 | 89 | 1018.2 |
| 20260506084543 | 7 | 0 | 0.0 | 1.6 | 0.00 | 0.00 | 0.00 | 89 | 1018.4 |
| 20260506084026 | 7 | 0 | 0.0 | 1.6 | 0.00 | 0.00 | 0.00 | 89 | 1018.3 |
| 20260506083525 | 7 | 109 | 0.0 | 1.6 | 0.00 | 0.00 | 0.00 | 89 | 1018.3 |
| 20260506083041 | 7 | 0 | 0.0 | 3.2 | 0.00 | 0.00 | 0.00 | 89 | 1018.4 |
| 20260506082525 | 7 | 0 | 0.0 | 3.2 | 0.00 | 0.00 | 0.00 | 89 | 1018.4 |
| 20260506082026 | 7 | 117 | 0.0 | 3.2 | 0.00 | 0.00 | 0.00 | 89 | 1018.3 |
| 20260506081538 | 7 | 0 | 0.0 | 0.0 | 0.00 | 0.00 | 0.00 | 89 | 1018.3 |
| 20260506081030 | 8 | 0 | 0.0 | 0.0 | 0.00 | 0.00 | 0.00 | 89 | 1018.3 |
| 20260506080528 | 8 | 0 | 0.0 | 0.0 | 0.00 | 0.00 | 0.00 | 88 | 1018.3 |
| 20260506073526 | 8 | 0 | 0.0 | 0.0 | 0.00 | 0.00 | 0.00 | 88 | 1018.1 |
| 20260506073039 | 8 | 0 | 0.0 | 0.0 | 0.00 | 0.00 | 0.00 | 88 | 1018.1 |
| 20260506072525 | 8 | 0 | 0.0 | 0.0 | 0.00 | 0.00 | 0.00 | 88 | 1018.1 |
| 20260506072026 | 8 | 0 | 0.0 | 0.0 | 0.00 | 0.00 | 0.00 | 88 | 1018.1 |
| 20260506071542 | 8 | 0 | 0.0 | 0.0 | 0.00 | 0.00 | 0.00 | 88 | 1018.1 |
| 20260506071028 | 8 | 0 | 0.0 | 0.0 | 0.00 | 0.00 | 0.00 | 88 | 1017.9 |
| 20260506070526 | 8 | 0 | 0.0 | 0.0 | 0.00 | 0.00 | 0.00 | 88 | 1017.8 |
| 20260506062025 | 9 | 0 | 0.0 | 0.0 | 0.00 | 0.00 | 0.00 | 86 | 1017.3 |
| 20260506061538 | 10 | 0 | 0.0 | 0.0 | 0.00 | 0.00 | 0.00 | 86 | 1017.3 |
| 20260506061026 | 10 | 0 | 0.0 | 0.0 | 0.00 | 0.00 | 0.00 | 86 | 1017.3 |
| 20260506060526 | 10 | 0 | 0.0 | 0.0 | 0.00 | 0.00 | 0.00 | 86 | 1017.3 |
| 20260506051024 | 10 | 0 | 0.0 | 0.0 | 0.00 | 0.00 | 0.00 | 85 | 1017.0 |
| 20260506050528 | 10 | 0 | 0.0 | 0.0 | 0.00 | 0.00 | 0.00 | 85 | 1017.0 |
| 20260506045026 | 10 | 0 | 0.0 | 3.2 | 0.00 | 0.00 | 0.00 | 83 | 1016.8 |
| 20260506044539 | 10 | 0 | 0.0 | 3.2 | 0.00 | 0.00 | 0.00 | 83 | 1016.8 |
| 20260506044025 | 11 | 0 | 0.0 | 3.2 | 0.00 | 0.00 | 0.00 | 81 | 1016.7 |
| 20260506043528 | 11 | 0 | 0.0 | 4.8 | 0.00 | 0.00 | 0.00 | 83 | 1016.5 |
| 20260506043038 | 11 | 0 | 0.0 | 4.8 | 0.00 | 0.00 | 0.00 | 83 | 1016.6 |
| 20260506042526 | 11 | 117 | 1.6 | 4.8 | 0.00 | 0.00 | 0.00 | 83 | 1016.4 |
| 20260506042025 | 11 | 126 | 0.0 | 3.2 | 0.00 | 0.00 | 0.00 | 83 | 1016.4 |
| 20260506041542 | 11 | 0 | 0.0 | 1.6 | 0.00 | 0.00 | 0.00 | 82 | 1016.3 |
| 20260506041025 | 11 | 0 | 0.0 | 3.2 | 0.00 | 0.00 | 0.00 | 81 | 1016.2 |
| 20260506040526 | 11 | 0 | 0.0 | 4.8 | 0.00 | 0.00 | 0.00 | 80 | 1016.2 |
| 20260506040042 | 12 | 114 | 1.6 | 4.8 | 0.00 | 0.00 | 0.00 | 79 | 1016.1 |
| 20260506035525 | 12 | 126 | 1.6 | 4.8 | 0.00 | 0.00 | 0.00 | 79 | 1016.0 |
| 20260506035026 | 12 | 109 | 1.6 | 4.8 | 0.00 | 0.00 | 0.00 | 78 | 1016.0 |
| 20260506034538 | 12 | 105 | 0.0 | 3.2 | 0.00 | 0.00 | 0.00 | 77 | 1015.9 |
| 20260506034026 | 12 | 0 | 0.0 | 0.0 | 0.00 | 0.00 | 0.00 | 76 | 1015.8 |
| 20260506033524 | 13 | 0 | 0.0 | 0.0 | 0.00 | 0.00 | 0.00 | 75 | 1015.7 |
| 20260506033041 | 13 | 0 | 0.0 | 0.0 | 0.00 | 0.00 | 0.00 | 73 | 1015.7 |
| 20260506032525 | 13 | 0 | 0.0 | 3.2 | 0.00 | 0.00 | 0.00 | 73 | 1015.7 |
| 20260506032024 | 13 | 0 | 0.0 | 3.2 | 0.00 | 0.00 | 0.00 | 73 | 1015.6 |
| 20260506031538 | 13 | 0 | 0.0 | 3.2 | 0.00 | 0.00 | 0.00 | 72 | 1015.4 |
| 20260506031024 | 13 | 0 | 0.0 | 6.4 | 0.00 | 0.00 | 0.00 | 72 | 1015.3 |
| 20260506030525 | 14 | 121 | 0.0 | 6.4 | 0.00 | 0.00 | 0.00 | 71 | 1015.2 |
| 20260506030037 | 14 | 175 | 0.0 | 8.0 | 0.00 | 0.00 | 0.00 | 71 | 1015.0 |
| 20260506025524 | 14 | 0 | 1.6 | 8.0 | 0.00 | 0.00 | 0.00 | 71 | 1014.9 |
| 20260506025027 | 14 | 215 | 1.6 | 9.7 | 0.00 | 0.00 | 0.00 | 70 | 1014.9 |
| 20260506024542 | 14 | 180 | 3.2 | 9.7 | 0.00 | 0.00 | 0.00 | 70 | 1014.9 |
| 20260506024027 | 15 | 236 | 1.6 | 6.4 | 0.00 | 0.00 | 0.00 | 69 | 1014.7 |
| 20260506023524 | 15 | 0 | 1.6 | 12.9 | 0.00 | 0.00 | 0.00 | 69 | 1014.7 |
| 20260506023051 | 15 | 0 | 1.6 | 12.9 | 0.00 | 0.00 | 0.00 | 69 | 1014.7 |
| 20260506022524 | 15 | 215 | 3.2 | 12.9 | 0.00 | 0.00 | 0.00 | 68 | 1014.7 |
| 20260506022024 | 15 | 240 | 4.8 | 9.7 | 0.00 | 0.00 | 0.00 | 68 | 1014.6 |
| 20260506021543 | 15 | 213 | 3.2 | 12.9 | 0.00 | 0.00 | 0.00 | 68 | 1014.6 |
| 20260506021028 | 15 | 180 | 3.2 | 12.9 | 0.00 | 0.00 | 0.00 | 68 | 1014.6 |
| 20260506020526 | 15 | 230 | 4.8 | 14.5 | 0.00 | 0.00 | 0.00 | 68 | 1014.5 |
| 20260506020039 | 15 | 212 | 6.4 | 14.5 | 0.00 | 0.00 | 0.00 | 66 | 1014.5 |
| 20260506015525 | 15 | 242 | 3.2 | 19.3 | 0.00 | 0.00 | 0.00 | 66 | 1014.4 |
| 20260506015029 | 15 | 244 | 9.7 | 19.3 | 0.00 | 0.00 | 0.00 | 65 | 1014.4 |
| 20260506014540 | 15 | 246 | 9.7 | 19.3 | 0.00 | 0.00 | 0.00 | 64 | 1014.5 |
| 20260506014024 | 16 | 222 | 8.0 | 19.3 | 0.00 | 0.00 | 0.00 | 64 | 1014.4 |
| 20260506013524 | 16 | 257 | 8.0 | 19.3 | 0.00 | 0.00 | 0.00 | 63 | 1014.5 |
| 20260506013037 | 16 | 232 | 11.3 | 17.7 | 0.00 | 0.00 | 0.00 | 65 | 1014.4 |
| 20260506012524 | 16 | 267 | 9.7 | 17.7 | 0.00 | 0.00 | 0.00 | 64 | 1014.5 |
| 20260506012025 | 16 | 246 | 8.0 | 19.3 | 0.00 | 0.00 | 0.00 | 64 | 1014.5 |
| 20260506011540 | 16 | 220 | 8.0 | 22.5 | 0.00 | 0.00 | 0.00 | 65 | 1014.6 |
| 20260506011025 | 16 | 252 | 9.7 | 22.5 | 0.00 | 0.00 | 0.00 | 64 | 1014.6 |
| 20260506010526 | 16 | 279 | 9.7 | 17.7 | 0.00 | 0.00 | 0.00 | 63 | 1014.5 |
| 20260506010049 | 16 | 267 | 6.4 | 19.3 | 0.00 | 0.00 | 0.00 | 63 | 1014.5 |
| 20260506005524 | 16 | 221 | 9.7 | 19.3 | 0.00 | 0.00 | 0.00 | 62 | 1014.6 |
| 20260506005024 | 16 | 229 | 9.7 | 20.9 | 0.00 | 0.00 | 0.00 | 62 | 1014.6 |
| 20260506004543 | 16 | 221 | 8.0 | 20.9 | 0.00 | 0.00 | 0.00 | 62 | 1014.5 |
| 20260506004025 | 16 | 215 | 11.3 | 20.9 | 0.00 | 0.00 | 0.00 | 62 | 1014.4 |
| 20260506003525 | 16 | 259 | 12.9 | 22.5 | 0.00 | 0.00 | 0.00 | 61 | 1014.5 |
| 20260506003038 | 16 | 242 | 9.7 | 22.5 | 0.00 | 0.00 | 0.00 | 61 | 1014.5 |
| 20260506002523 | 16 | 201 | 12.9 | 20.9 | 0.00 | 0.00 | 0.00 | 62 | 1014.4 |
| 20260506002024 | 17 | 244 | 9.7 | 20.9 | 0.00 | 0.00 | 0.00 | 60 | 1014.4 |
| 20260506001544 | 17 | 243 | 11.3 | 20.9 | 0.00 | 0.00 | 0.00 | 61 | 1014.5 |
| 20260506001024 | 17 | 273 | 11.3 | 24.1 | 0.00 | 0.00 | 0.00 | 61 | 1014.4 |
| 20260506000524 | 17 | 237 | 14.5 | 24.1 | 0.00 | 0.00 | 0.00 | 61 | 1014.6 |
| 20260506000037 | 17 | 192 | 11.3 | 20.9 | 0.00 | 0.00 | 0.00 | 60 | 1014.5 |
| 20260505235526 | 17 | 228 | 14.5 | 20.9 | 0.00 | 0.00 | 0.00 | 60 | 1014.4 |
| 20260505235027 | 17 | 238 | 12.9 | 19.3 | 0.00 | 0.00 | 0.00 | 59 | 1014.4 |
| 20260505234601 | 18 | 227 | 11.3 | 17.7 | 0.00 | 0.00 | 0.00 | 59 | 1014.4 |
| 20260505234026 | 18 | 286 | 8.0 | 17.7 | 0.00 | 0.00 | 0.00 | 59 | 1014.4 |
| 20260505233525 | 18 | 203 | 9.7 | 16.1 | 0.00 | 0.00 | 0.00 | 58 | 1014.4 |
| 20260505233042 | 18 | 188 | 9.7 | 19.3 | 0.00 | 0.00 | 0.00 | 59 | 1014.4 |
| 20260505232526 | 18 | 207 | 11.3 | 19.3 | 0.00 | 0.00 | 0.00 | 58 | 1014.5 |
| 20260505232026 | 18 | 208 | 9.7 | 17.7 | 0.00 | 0.00 | 0.00 | 58 | 1014.5 |
| 20260505231539 | 18 | 196 | 6.4 | 17.7 | 0.00 | 0.00 | 0.00 | 56 | 1014.6 |
| 20260505231024 | 18 | 252 | 11.3 | 17.7 | 0.00 | 0.00 | 0.00 | 54 | 1014.4 |
| 20260505230526 | 18 | 253 | 9.7 | 17.7 | 0.00 | 0.00 | 0.00 | 57 | 1014.4 |
| 20260505230038 | 18 | 243 | 11.3 | 24.1 | 0.00 | 0.00 | 0.00 | 57 | 1014.5 |
| 20260505225525 | 18 | 231 | 8.0 | 24.1 | 0.00 | 0.00 | 0.00 | 57 | 1014.5 |
| 20260505225025 | 18 | 225 | 12.9 | 22.5 | 0.00 | 0.00 | 0.00 | 56 | 1014.6 |
| 20260505224539 | 18 | 306 | 6.4 | 16.1 | 0.00 | 0.00 | 0.00 | 56 | 1014.6 |
| 20260505224025 | 18 | 275 | 4.8 | 17.7 | 0.00 | 0.00 | 0.00 | 57 | 1014.6 |
| 20260505223528 | 18 | 294 | 4.8 | 17.7 | 0.00 | 0.00 | 0.00 | 56 | 1014.7 |
| 20260505223040 | 18 | 239 | 9.7 | 17.7 | 0.00 | 0.00 | 0.00 | 56 | 1014.6 |
| 20260505222526 | 18 | 216 | 4.8 | 17.7 | 0.00 | 0.00 | 0.00 | 57 | 1014.7 |
| 20260505222026 | 18 | 246 | 8.0 | 14.5 | 0.00 | 0.00 | 0.00 | 56 | 1014.8 |
| 20260505221542 | 18 | 252 | 8.0 | 14.5 | 0.00 | 0.00 | 0.00 | 57 | 1014.7 |
| 20260505221029 | 17 | 251 | 3.2 | 16.1 | 0.00 | 0.00 | 0.00 | 59 | 1014.7 |
| 20260505220523 | 17 | 227 | 8.0 | 16.1 | 0.00 | 0.00 | 0.00 | 59 | 1014.9 |
| 20260505220042 | 17 | 236 | 8.0 | 17.7 | 0.00 | 0.00 | 0.00 | 59 | 1014.9 |
| 20260505215525 | 17 | 216 | 11.3 | 17.7 | 0.00 | 0.00 | 0.00 | 59 | 1014.9 |
| 20260505215024 | 18 | 213 | 8.0 | 16.1 | 0.00 | 0.00 | 0.00 | 58 | 1015.0 |
| 20260505214559 | 17 | 250 | 8.0 | 17.7 | 0.00 | 0.00 | 0.00 | 58 | 1015.1 |
| 20260505214025 | 18 | 211 | 9.7 | 17.7 | 0.00 | 0.00 | 0.00 | 57 | 1015.2 |
| 20260505213524 | 17 | 227 | 9.7 | 17.7 | 0.00 | 0.00 | 0.00 | 59 | 1015.2 |
| 20260505213042 | 17 | 256 | 11.3 | 20.9 | 0.00 | 0.00 | 0.00 | 58 | 1015.2 |
| 20260505212526 | 17 | 186 | 12.9 | 20.9 | 0.00 | 0.00 | 0.00 | 59 | 1015.3 |
| 20260505212024 | 17 | 248 | 8.0 | 20.9 | 0.00 | 0.00 | 0.00 | 59 | 1015.3 |
| 20260505211539 | 17 | 275 | 4.8 | 14.5 | 0.00 | 0.00 | 0.00 | 58 | 1015.3 |
| 20260505211028 | 17 | 248 | 6.4 | 16.1 | 0.00 | 0.00 | 0.00 | 59 | 1015.3 |
| 20260505210526 | 17 | 259 | 9.7 | 16.1 | 0.00 | 0.00 | 0.00 | 59 | 1015.2 |
| 20260505210040 | 17 | 293 | 6.4 | 16.1 | 0.00 | 0.00 | 0.00 | 60 | 1015.2 |
| 20260505205526 | 17 | 227 | 4.8 | 14.5 | 0.00 | 0.00 | 0.00 | 60 | 1015.2 |
| 20260505205025 | 17 | 224 | 4.8 | 14.5 | 0.00 | 0.00 | 0.00 | 59 | 1015.1 |
| 20260505204548 | 18 | 262 | 3.2 | 12.9 | 0.00 | 0.00 | 0.00 | 57 | 1015.2 |
| 20260505204024 | 17 | 233 | 4.8 | 11.3 | 0.00 | 0.00 | 0.00 | 58 | 1015.1 |
| 20260505203524 | 17 | 253 | 3.2 | 12.9 | 0.00 | 0.00 | 0.00 | 59 | 1015.1 |
| 20260505203046 | 17 | 259 | 1.6 | 17.7 | 0.00 | 0.00 | 0.00 | 59 | 1015.1 |
| 20260505202525 | 17 | 221 | 6.4 | 17.7 | 0.00 | 0.00 | 0.00 | 59 | 1015.1 |
| 20260505202024 | 17 | 224 | 9.7 | 17.7 | 0.00 | 0.00 | 0.00 | 59 | 1015.0 |
| 20260505201539 | 17 | 217 | 9.7 | 14.5 | 0.00 | 0.00 | 0.00 | 59 | 1015.2 |
| 20260505201024 | 17 | 180 | 8.0 | 14.5 | 0.00 | 0.00 | 0.00 | 59 | 1015.2 |
| 20260505200527 | 17 | 302 | 4.8 | 12.9 | 0.00 | 0.00 | 0.00 | 60 | 1015.3 |
| 20260505200058 | 17 | 294 | 6.4 | 12.9 | 0.00 | 0.00 | 0.00 | 61 | 1015.3 |
| 20260505195526 | 17 | 300 | 4.8 | 14.5 | 0.00 | 0.00 | 0.00 | 59 | 1015.3 |
| 20260505195026 | 17 | 237 | 4.8 | 14.5 | 0.00 | 0.00 | 0.00 | 59 | 1015.1 |
| 20260505194545 | 17 | 246 | 4.8 | 14.5 | 0.00 | 0.00 | 0.00 | 60 | 1015.3 |
| 20260505194026 | 17 | 277 | 8.0 | 14.5 | 0.00 | 0.00 | 0.00 | 60 | 1015.3 |
| 20260505193526 | 16 | 266 | 6.4 | 17.7 | 0.00 | 0.00 | 0.00 | 61 | 1015.3 |
| 20260505193042 | 16 | 234 | 6.4 | 17.7 | 0.00 | 0.00 | 0.00 | 61 | 1015.3 |
| 20260505192528 | 16 | 228 | 9.7 | 17.7 | 0.00 | 0.00 | 0.00 | 61 | 1015.3 |
| 20260505192025 | 16 | 246 | 8.0 | 16.1 | 0.00 | 0.00 | 0.00 | 61 | 1015.2 |
| 20260505191538 | 17 | 242 | 9.7 | 17.7 | 0.00 | 0.00 | 0.00 | 61 | 1015.3 |
| 20260505191026 | 16 | 242 | 6.4 | 17.7 | 0.00 | 0.00 | 0.00 | 61 | 1015.2 |
| 20260505190526 | 16 | 224 | 6.4 | 17.7 | 0.00 | 0.00 | 0.00 | 61 | 1015.1 |
| 20260505190039 | 16 | 169 | 0.0 | 9.7 | 0.00 | 0.00 | 0.00 | 59 | 1015.2 |
| 20260505185528 | 17 | 211 | 4.8 | 12.9 | 0.00 | 0.00 | 0.00 | 58 | 1015.2 |
| 20260505185025 | 17 | 267 | 3.2 | 16.1 | 0.00 | 0.00 | 0.00 | 56 | 1015.1 |
| 20260505184538 | 17 | 319 | 4.8 | 16.1 | 0.00 | 0.00 | 0.00 | 57 | 1015.1 |
| 20260505184024 | 17 | 323 | 9.7 | 16.1 | 0.00 | 0.00 | 0.00 | 58 | 1015.3 |
| 20260505183525 | 16 | 31 | 3.2 | 14.5 | 0.00 | 0.00 | 0.00 | 57 | 1015.2 |
| 20260505183044 | 16 | 283 | 1.6 | 14.5 | 0.00 | 0.00 | 0.00 | 58 | 1015.2 |
| 20260505182524 | 16 | 0 | 4.8 | 14.5 | 0.00 | 0.00 | 0.00 | 58 | 1015.1 |
| 20260505182025 | 16 | 0 | 0.0 | 6.4 | 0.00 | 0.00 | 0.00 | 60 | 1015.3 |
| 20260505181541 | 16 | 183 | 0.0 | 6.4 | 0.00 | 0.00 | 0.00 | 59 | 1015.3 |
| 20260505181024 | 16 | 60 | 1.6 | 8.0 | 0.00 | 0.00 | 0.00 | 62 | 1015.3 |
| 20260505180525 | 16 | 151 | 0.0 | 9.7 | 0.00 | 0.00 | 0.00 | 60 | 1015.3 |
| 20260505175528 | 15 | 86 | 1.6 | 11.3 | 0.00 | 0.00 | 0.00 | 63 | 1015.2 |
| 20260505175029 | 16 | 80 | 4.8 | 11.3 | 0.00 | 0.00 | 0.00 | 62 | 1015.2 |
| 20260505174556 | 15 | 81 | 3.2 | 8.0 | 0.00 | 0.00 | 0.00 | 62 | 1015.2 |
| 20260505174026 | 15 | 262 | 1.6 | 8.0 | 0.00 | 0.00 | 0.00 | 63 | 1015.2 |
| 20260505173529 | 15 | 5 | 4.8 | 8.0 | 0.00 | 0.00 | 0.00 | 64 | 1015.2 |
| 20260505173044 | 15 | 37 | 1.6 | 8.0 | 0.00 | 0.00 | 0.00 | 65 | 1015.2 |
| 20260505172524 | 15 | 0 | 0.0 | 8.0 | 0.00 | 0.00 | 0.00 | 64 | 1015.2 |
| 20260505172024 | 15 | 299 | 3.2 | 8.0 | 0.00 | 0.00 | 0.00 | 64 | 1015.2 |
| 20260505171537 | 15 | 54 | 1.6 | 11.3 | 0.00 | 0.00 | 0.00 | 64 | 1015.3 |
| 20260505171028 | 14 | 26 | 4.8 | 11.3 | 0.00 | 0.00 | 0.00 | 64 | 1015.4 |
| 20260505170525 | 14 | 0 | 1.6 | 8.0 | 0.00 | 0.00 | 0.00 | 65 | 1015.4 |
| 20260505170043 | 14 | 44 | 1.6 | 12.9 | 0.00 | 0.00 | 0.00 | 67 | 1015.5 |
| 20260505165525 | 13 | 42 | 4.8 | 12.9 | 0.00 | 0.00 | 0.00 | 68 | 1015.6 |
| 20260505165027 | 13 | 35 | 3.2 | 8.0 | 0.00 | 0.00 | 0.00 | 69 | 1015.6 |
| 20260505164539 | 13 | 16 | 3.2 | 8.0 | 0.00 | 0.00 | 0.00 | 69 | 1015.5 |
| 20260505164024 | 13 | 298 | 0.0 | 4.8 | 0.00 | 0.00 | 0.00 | 70 | 1015.4 |
| 20260505163524 | 12 | 327 | 0.0 | 4.8 | 0.00 | 0.00 | 0.00 | 72 | 1015.3 |
| 20260505163039 | 12 | 0 | 0.0 | 4.8 | 0.00 | 0.00 | 0.00 | 72 | 1015.4 |
| 20260505162525 | 12 | 271 | 0.0 | 8.0 | 0.00 | 0.00 | 0.00 | 73 | 1015.4 |
| 20260505162025 | 12 | 0 | 3.2 | 9.7 | 0.00 | 0.00 | 0.00 | 73 | 1015.3 |
| 20260505161539 | 12 | 352 | 1.6 | 9.7 | 0.00 | 0.00 | 0.00 | 73 | 1015.3 |
| 20260505161028 | 12 | 337 | 3.2 | 8.0 | 0.00 | 0.00 | 0.00 | 73 | 1015.1 |
| 20260505160527 | 12 | 0 | 0.0 | 9.7 | 0.00 | 0.00 | 0.00 | 75 | 1015.2 |
| 20260505153043 | 11 | 0 | 0.0 | 4.8 | 0.00 | 0.00 | 0.00 | 81 | 1015.3 |
| 20260505152524 | 11 | 94 | 0.0 | 4.8 | 0.00 | 0.00 | 0.00 | 82 | 1015.2 |
| 20260505152024 | 10 | 0 | 0.0 | 3.2 | 0.00 | 0.00 | 0.00 | 82 | 1015.0 |
| 20260505151539 | 10 | 0 | 0.0 | 4.8 | 0.00 | 0.00 | 0.00 | 82 | 1014.9 |
| 20260505151025 | 10 | 0 | 0.0 | 4.8 | 0.00 | 0.00 | 0.00 | 83 | 1015.0 |
| 20260505150526 | 10 | 76 | 1.6 | 4.8 | 0.00 | 0.00 | 0.00 | 83 | 1014.9 |
| 20260505140524 | 9 | 0 | 0.0 | 0.0 | 0.00 | 0.00 | 0.00 | 87 | 1014.7 |
| 20260505125027 | 9 | 0 | 0.0 | 0.0 | 0.00 | 0.00 | 0.00 | 85 | 1014.1 |